EN

Hourly Weather Ambarne

Today, 18 January, Monday

Time Temperature Precipitation Wind Pressure Humidity
00:00 -17°C° 0 mm 2 mps 746 mmHg 92%
01:00 -17°C° 0 mm 2 mps 746 mmHg 92%
02:00 -17°C° 0 mm 2 mps 746 mmHg 92%
03:00 -17°C° 0 mm 2 mps 746 mmHg 93%
04:00 -17°C° 0.3 mm 2 mps 746 mmHg 93%
05:00 -17°C° 0.3 mm 2 mps 746 mmHg 94%
06:00 -16°C° 0.3 mm 2 mps 746 mmHg 95%
07:00 -16°C° 0.4 mm 2 mps 746 mmHg 95%
08:00 -16°C° 0.4 mm 2 mps 747 mmHg 95%
09:00 -16°C° 0.4 mm 2 mps 747 mmHg 95%
10:00 -16°C° 0.3 mm 2 mps 747 mmHg 93%
11:00 -15°C° 0.3 mm 2 mps 747 mmHg 92%
12:00 -15°C° 0.3 mm 2 mps 747 mmHg 91%
13:00 -15°C° 0 mm 2 mps 747 mmHg 91%
14:00 -15°C° 0 mm 2 mps 747 mmHg 92%
15:00 -15°C° 0 mm 2 mps 746 mmHg 92%
16:00 -15°C° 0 mm 2 mps 747 mmHg 93%
17:00 -14°C° 0 mm 1 mps 747 mmHg 94%
18:00 -15°C° 0 mm 1 mps 748 mmHg 96%
19:00 -15°C° 0 mm 1 mps 748 mmHg 96%
20:00 -15°C° 0 mm 1 mps 748 mmHg 96%
21:00 -15°C° 0 mm 1 mps 748 mmHg 96%
22:00 -15°C° 0 mm 1 mps 748 mmHg 96%
23:00 -15°C° 0 mm 1 mps 748 mmHg 96%

Tomorrow, 19 January, Tuesday

Time Temperature Precipitation Wind Pressure Humidity
00:00 -15°C° 0 mm 0 mps 748 mmHg 96%
01:00 -15°C° 0.1 mm 0 mps 748 mmHg 96%
02:00 -15°C° 0.1 mm 0 mps 748 mmHg 96%
03:00 -15°C° 0.1 mm 0 mps 748 mmHg 96%
04:00 -15°C° 0.1 mm 0 mps 748 mmHg 96%
05:00 -15°C° 0.1 mm 0 mps 748 mmHg 96%
06:00 -15°C° 0.1 mm 0 mps 748 mmHg 96%
07:00 -15°C° 0.1 mm 1 mps 748 mmHg 96%
08:00 -15°C° 0.1 mm 1 mps 748 mmHg 96%
09:00 -15°C° 0.1 mm 1 mps 749 mmHg 96%
10:00 -15°C° 0.1 mm 1 mps 749 mmHg 93%
11:00 -14°C° 0.1 mm 1 mps 749 mmHg 91%
12:00 -14°C° 0.1 mm 1 mps 749 mmHg 88%
13:00 -14°C° 0 mm 1 mps 749 mmHg 89%
14:00 -13°C° 0 mm 1 mps 748 mmHg 89%
15:00 -15°C° 0 mm 2 mps 748 mmHg 89%
16:00 -16°C° 0 mm 2 mps 749 mmHg 91%
17:00 -17°C° 0 mm 2 mps 749 mmHg 93%
18:00 -18°C° 0 mm 2 mps 749 mmHg 95%
19:00 -19°C° 0 mm 2 mps 749 mmHg 95%
20:00 -20°C° 0 mm 2 mps 750 mmHg 95%
21:00 -21°C° 0 mm 2 mps 750 mmHg 95%
22:00 -21°C° 0 mm 2 mps 750 mmHg 95%
23:00 -21°C° 0 mm 2 mps 750 mmHg 95%

Day after tomorrow, 20 January, Wednesday

Time Temperature Precipitation Wind Pressure Humidity
00:00 -23°C° 0 mm 2 mps 750 mmHg 95%
01:00 -21°C° 0 mm 2 mps 751 mmHg 96%
02:00 -21°C° 0 mm 2 mps 751 mmHg 96%
03:00 -21°C° 0 mm 2 mps 751 mmHg 96%
04:00 -21°C° 0 mm 2 mps 751 mmHg 96%
05:00 -21°C° 0 mm 2 mps 751 mmHg 96%
06:00 -21°C° 0 mm 2 mps 751 mmHg 97%
07:00 -21°C° 0 mm 2 mps 752 mmHg 97%
08:00 -21°C° 0 mm 2 mps 752 mmHg 96%
09:00 -21°C° 0 mm 2 mps 752 mmHg 96%
10:00 -20°C° 0 mm 2 mps 752 mmHg 95%
11:00 -18°C° 0 mm 2 mps 753 mmHg 93%
12:00 -15°C° 0 mm 1 mps 753 mmHg 91%
13:00 -15°C° 0 mm 1 mps 753 mmHg 91%
14:00 -14°C° 0 mm 1 mps 753 mmHg 92%
15:00 -14°C° 0 mm 1 mps 753 mmHg 92%
16:00 -15°C° 0 mm 1 mps 753 mmHg 93%
17:00 -16°C° 0 mm 1 mps 754 mmHg 94%
18:00 -18°C° 0 mm 1 mps 754 mmHg 96%
19:00 -18°C° 0 mm 1 mps 754 mmHg 96%
20:00 -18°C° 0 mm 1 mps 754 mmHg 96%
21:00 -18°C° 0 mm 1 mps 755 mmHg 96%
22:00 -18°C° 0 mm 1 mps 755 mmHg 96%
23:00 -19°C° 0 mm 1 mps 755 mmHg 96%

21 January, Thursday

Time Temperature Precipitation Wind Pressure Humidity
00:00 -19°C° 0 mm 1 mps 755 mmHg 95%
01:00 -21°C° 0 mm 2 mps 755 mmHg 95%
02:00 -21°C° 0 mm 2 mps 755 mmHg 95%
03:00 -21°C° 0 mm 2 mps 755 mmHg 95%
04:00 -21°C° 0 mm 2 mps 755 mmHg 95%
05:00 -21°C° 0 mm 2 mps 755 mmHg 95%
06:00 -21°C° 0 mm 2 mps 755 mmHg 95%
07:00 -21°C° 0 mm 2 mps 755 mmHg 94%
08:00 -23°C° 0 mm 3 mps 755 mmHg 93%
09:00 -23°C° 0 mm 3 mps 756 mmHg 92%
10:00 -21°C° 0 mm 3 mps 756 mmHg 90%
11:00 -19°C° 0 mm 4 mps 756 mmHg 89%
12:00 -17°C° 0 mm 4 mps 755 mmHg 87%
13:00 -16°C° 0 mm 4 mps 755 mmHg 89%
14:00 -15°C° 0 mm 4 mps 755 mmHg 91%
15:00 -14°C° 0 mm 4 mps 755 mmHg 93%
16:00 -14°C° 0 mm 4 mps 754 mmHg 93%
17:00 -14°C° 0 mm 4 mps 754 mmHg 94%
18:00 -13°C° 0 mm 5 mps 754 mmHg 94%
19:00 -13°C° 0 mm 5 mps 754 mmHg 94%
20:00 -12°C° 0 mm 5 mps 754 mmHg 94%
21:00 -11°C° 0 mm 5 mps 754 mmHg 94%
22:00 -11°C° 0 mm 5 mps 754 mmHg 94%
23:00 -10°C° 0 mm 5 mps 753 mmHg 95%

22 January, Friday

Time Temperature Precipitation Wind Pressure Humidity
00:00 -10°C° 0 mm 5 mps 753 mmHg 95%
01:00 -8°C° 0 mm 5 mps 753 mmHg 95%
02:00 -7°C° 0 mm 5 mps 753 mmHg 95%
03:00 -7°C° 0 mm 5 mps 753 mmHg 95%
04:00 -6°C° 0 mm 5 mps 752 mmHg 95%
05:00 -6°C° 0 mm 5 mps 752 mmHg 95%
06:00 -6°C° 0 mm 5 mps 751 mmHg 96%
07:00 -5°C° 0 mm 5 mps 751 mmHg 96%
08:00 -4°C° 0 mm 5 mps 751 mmHg 95%
09:00 -2°C° 0 mm 5 mps 751 mmHg 95%
10:00 -2°C° 0 mm 5 mps 751 mmHg 96%
11:00 -1°C° 0 mm 5 mps 751 mmHg 98%
12:00 -1°C° 0 mm 5 mps 751 mmHg 99%
13:00 -2°C° 0 mm 6 mps 751 mmHg 99%
14:00 -2°C° 0 mm 6 mps 751 mmHg 99%
15:00 -2°C° 0 mm 6 mps 751 mmHg 99%
16:00 -1°C° 0 mm 5 mps 751 mmHg 98%
17:00 -1°C° 0 mm 5 mps 751 mmHg 98%
18:00 -1°C° 0 mm 4 mps 751 mmHg 97%
19:00 -1°C° 0 mm 5 mps 750 mmHg 97%
20:00 -1°C° 0 mm 5 mps 750 mmHg 96%
21:00 -1°C° 0 mm 5 mps 750 mmHg 96%
22:00 -1°C° 0 mm 4 mps 750 mmHg 96%
23:00 -1°C° 0 mm 4 mps 750 mmHg 96%

23 January, Saturday

Time Temperature Precipitation Wind Pressure Humidity
00:00 -1°C° 0 mm 4 mps 750 mmHg 97%
01:00 -1°C° 0 mm 4 mps 750 mmHg 96%
02:00 -1°C° 0 mm 4 mps 750 mmHg 96%
03:00 -1°C° 0 mm 4 mps 750 mmHg 95%
04:00 -1°C° 0 mm 4 mps 750 mmHg 95%
05:00 -1°C° 0 mm 4 mps 749 mmHg 94%
06:00 -1°C° 0 mm 4 mps 749 mmHg 94%
07:00 -1°C° 0 mm 4 mps 749 mmHg 95%
08:00 -1°C° 0 mm 5 mps 749 mmHg 95%
09:00 -1°C° 0 mm 5 mps 749 mmHg 95%
10:00 -1°C° 0 mm 5 mps 749 mmHg 97%
11:00 -1°C° 0 mm 5 mps 749 mmHg 98%
12:00 0°C° 0 mm 5 mps 749 mmHg 99%
13:00 0°C° 0 mm 5 mps 749 mmHg 99%
14:00 0°C° 0 mm 5 mps 749 mmHg 99%
15:00 0°C° 0 mm 5 mps 749 mmHg 99%
16:00 0°C° 0 mm 5 mps 749 mmHg 98%
17:00 0°C° 0 mm 5 mps 749 mmHg 97%
18:00 0°C° 0 mm 5 mps 749 mmHg 96%
19:00 -1°C° 0 mm 5 mps 749 mmHg 96%
20:00 -1°C° 0 mm 5 mps 749 mmHg 96%
21:00 -1°C° 0 mm 5 mps 749 mmHg 96%
22:00 -1°C° 0 mm 5 mps 749 mmHg 96%
23:00 -1°C° 0 mm 5 mps 749 mmHg 95%
Show more